Location: Brno
(49.2000°N, 16.6330°E)
Time: 04:20:47
(UTC+02:00)

Vanguard 3 - Pass Details

Date: 09 August 2021
Orbit: 510 x 3260 km, 33.3° (Epoch: 16 September)

Event Time Altitude Azimuth Distance (km) Brightness Sun altitude
Rises 14:38:47 0° 188° (S) 4,032 11.2 50.8°
Reaches altitude 10° 14:42:53 10° 165° (SSE) 3,553 10.9 50.4°
Maximum altitude 14:47:33 15° 135° (SE) 3,709 10.7 49.9°
Drops below altitude 10° 14:53:26 10° 107° (ESE) 4,698 10.9 49.2°
Sets 15:00:32 0° 88° (E) 6,331 11.4 48.4°
